Weather History for KRDM - December, 2012

Change the Weather History Date:

Thursday, December 20, 2012

  Actual Average Record
Temperature  
Mean Temperature 36 °F 30 °F  
Max Temperature 41 °F 40 °F 58 °F (1994)
Min Temperature 31 °F 20 °F -13 °F (1990)
Degree Days  
Heating Degree Days 29 35  
Month to date heating degree days 606 686  
Since 1 July heating degree days 2139 2460  
Cooling Degree Days 0 0  
Month to date cooling degree days 0 0  
Year to date cooling degree days 206 222  
Moisture  
Dew Point 24 °F    
Average Humidity 70    
Maximum Humidity 100    
Minimum Humidity 40    
Precipitation  
Precipitation T in 0.04 in 0.49 in (1964)
Month to date precipitation 1.28 0.78  
Year to date precipitation 11.22 8.52  
Sea Level Pressure  
Sea Level Pressure 29.76 in    
Wind  
Wind Speed 12 mph (South)    
Max Wind Speed 32 mph    
Max Gust Speed 43 mph    
Visibility 9 miles    
Events Snow    
T = Trace of Precipitation, MM = Missing Value Source: NWS Daily Summary

Daily Weather History Graph

Daily Weather History Graph

Search for Another Location

Airport or City:

Trip Planner

Search our weather history database for the weather conditions in past years. The results will help you decide how hot, cold, wet, or windy it might be!

Date:

Astronomy

Dec. 20, 2012 Rise Set
Actual Time 7:36 AM PST 4:28 PM PST
Civil Twilight 7:03 AM PST 5:01 PM PST
Nautical Twilight 6:26 AM PST 5:38 PM PST
Astronomical Twilight 5:51 AM PST 6:13 PM PST
Moon 11:59 AM PST (12/20) 12:17 AM PST (12/20)
Length of Visible Light 9h 58m
Length of Day
8h 51m
First Quarter, 56% of the Moon is Illuminated
Dec 20
First Quarter
Dec 28
Full
Jan 4
Last Quarter
Jan 11
New
Jan 18
First Quarter

Hourly Weather History & Observations

Time (PST) Temp. Windchill Dew Point Humidity Pressure Visibility Wind Dir Wind Speed Gust Speed Precip Events Conditions
12:56 AM 35.1 °F 26.9 °F 19.9 °F 54% 29.79 in 10.0 mi SSE 11.5 mph 24.2 mph N/A   Clear
1:56 AM 35.1 °F 24.5 °F 19.0 °F 52% 29.77 in 10.0 mi SSE 18.4 mph 27.6 mph N/A   Clear
2:56 AM 35.1 °F 24.5 °F 19.0 °F 52% 29.76 in 10.0 mi SSE 18.4 mph 27.6 mph N/A   Clear
3:56 AM 35.1 °F 29.3 °F 18.0 °F 50% 29.75 in 10.0 mi Variable 6.9 mph 17.3 mph N/A   Clear
4:56 AM 35.1 °F 27.9 °F 18.0 °F 50% 29.73 in 10.0 mi SE 9.2 mph 23.0 mph N/A   Clear
5:56 AM 35.1 °F 25.9 °F 17.1 °F 48% 29.72 in 10.0 mi SSE 13.8 mph - N/A   Clear
6:56 AM 35.1 °F 26.4 °F 16.0 °F 46% 29.69 in 10.0 mi SSE 12.7 mph 26.5 mph N/A   Clear
7:56 AM 35.1 °F 25.5 °F 16.0 °F 46% 29.69 in 10.0 mi South 15.0 mph 23.0 mph N/A   Clear
8:56 AM 36.0 °F 24.2 °F 16.0 °F 44% 29.72 in 10.0 mi South 24.2 mph 31.1 mph N/A   Mostly Cloudy
9:56 AM 39.0 °F 32.3 °F 18.0 °F 43% 29.73 in 10.0 mi South 10.4 mph 19.6 mph N/A   Clear
10:56 AM 39.9 °F 30.0 °F 21.9 °F 49% 29.73 in 10.0 mi South 21.9 mph 35.7 mph N/A   Clear
11:56 AM 39.9 °F 29.5 °F 23.0 °F 51% 29.73 in 10.0 mi SSW 24.2 mph 36.8 mph N/A   Clear
12:56 PM 39.9 °F 29.2 °F 24.1 °F 53% 29.71 in 10.0 mi SSW 25.3 mph 36.8 mph N/A   Clear
1:56 PM 37.9 °F 28.9 °F 26.1 °F 62% 29.74 in 10.0 mi SSW 16.1 mph 36.8 mph N/A   Partly Cloudy
2:56 PM 37.9 °F 30.5 °F 26.1 °F 62% 29.75 in 10.0 mi SSW 11.5 mph 20.7 mph N/A   Mostly Cloudy
3:56 PM 37.0 °F 29.3 °F 27.0 °F 67% 29.78 in 10.0 mi SSW 11.5 mph 18.4 mph N/A   Scattered Clouds
4:56 PM 36.0 °F 28.5 °F 27.0 °F 70% 29.79 in 10.0 mi South 10.4 mph - N/A   Mostly Cloudy
5:56 PM 35.1 °F 28.6 °F 28.0 °F 76% 29.80 in 10.0 mi SSW 8.1 mph - N/A   Overcast
6:56 PM 34.0 °F 29.8 °F 28.0 °F 79% 29.81 in 10.0 mi SW 4.6 mph - N/A   Overcast
7:56 PM 34.0 °F - 28.0 °F 79% 29.80 in 10.0 mi Calm Calm - N/A   Overcast
8:40 PM 33.8 °F - 28.4 °F 81% 29.78 in 4.0 mi Calm Calm - 0.00 in Snow Light Snow
8:49 PM 33.8 °F - 28.4 °F 81% 29.78 in 2.0 mi Calm Calm - 0.00 in Snow Light Snow
8:56 PM 32.0 °F - 28.9 °F 88% 29.83 in 2.0 mi Calm Calm - 0.00 in Snow Light Snow
9:07 PM 32.0 °F 28.7 °F 28.4 °F 87% 29.77 in 5.0 mi ENE 3.5 mph - 0.00 in Snow Light Snow
9:49 PM 32.0 °F 28.7 °F 30.2 °F 93% 29.77 in 10.0 mi East 3.5 mph - 0.00 in   Overcast
9:56 PM 32.0 °F - 30.0 °F 92% 29.81 in 10.0 mi Calm Calm - 0.00 in   Overcast
10:38 PM 30.2 °F - 30.2 °F 100% 29.78 in 10.0 mi Calm Calm - 0.00 in   Mostly Cloudy
10:56 PM 30.9 °F - 30.0 °F 96% 29.82 in 10.0 mi Calm Calm - 0.00 in   Mostly Cloudy
11:56 PM 32.0 °F 27.5 °F 28.9 °F 88% 29.82 in 9.0 mi East 4.6 mph - 0.00 in   Overcast